Hourly Weather Krainka

Today, 24 October, Saturday

Time Temperature Precipitation Wind Pressure Humidity
00:00 +9°C° 0 mm 5 mps 741 mmHg 93%
01:00 +10°C° 0 mm 4 mps 741 mmHg 94%
02:00 +8°C° 0 mm 4 mps 742 mmHg 94%
03:00 +8°C° 0 mm 4 mps 742 mmHg 95%
04:00 +8°C° 0 mm 4 mps 742 mmHg 95%
05:00 +8°C° 0 mm 3 mps 742 mmHg 95%
06:00 +8°C° 0 mm 3 mps 742 mmHg 94%
07:00 +8°C° 0 mm 3 mps 743 mmHg 93%
08:00 +8°C° 0 mm 3 mps 743 mmHg 92%
09:00 +9°C° 0 mm 3 mps 743 mmHg 87%
10:00 +10°C° 0 mm 3 mps 743 mmHg 82%
11:00 +12°C° 0 mm 2 mps 743 mmHg 77%
12:00 +12°C° 0 mm 3 mps 743 mmHg 75%
13:00 +12°C° 0 mm 3 mps 743 mmHg 73%
14:00 +12°C° 0 mm 3 mps 743 mmHg 70%
15:00 +12°C° 0 mm 3 mps 743 mmHg 75%
16:00 +12°C° 0 mm 2 mps 743 mmHg 79%
17:00 +11°C° 0 mm 1 mps 743 mmHg 84%
18:00 +11°C° 0.7 mm 1 mps 743 mmHg 87%
19:00 +11°C° 0.7 mm 1 mps 742 mmHg 91%
20:00 +9°C° 0.7 mm 0 mps 742 mmHg 95%
21:00 +10°C° 2.4 mm 1 mps 742 mmHg 95%
22:00 +10°C° 2.4 mm 1 mps 742 mmHg 96%
23:00 +10°C° 2.4 mm 1 mps 742 mmHg 97%

Tomorrow, 25 October, Sunday

Time Temperature Precipitation Wind Pressure Humidity
00:00 +9°C° 1.2 mm 2 mps 742 mmHg 96%
01:00 +9°C° 1.2 mm 2 mps 742 mmHg 95%
02:00 +9°C° 1.2 mm 3 mps 742 mmHg 94%
03:00 +8°C° 0 mm 3 mps 743 mmHg 95%
04:00 +8°C° 0 mm 3 mps 743 mmHg 95%
05:00 +7°C° 0 mm 3 mps 743 mmHg 95%
06:00 +7°C° 0 mm 3 mps 744 mmHg 94%
07:00 +7°C° 0 mm 3 mps 744 mmHg 93%
08:00 +7°C° 0 mm 3 mps 745 mmHg 92%
09:00 +8°C° 0.1 mm 3 mps 745 mmHg 91%
10:00 +8°C° 0.1 mm 3 mps 746 mmHg 89%
11:00 +8°C° 0.1 mm 3 mps 746 mmHg 87%
12:00 +9°C° 0 mm 3 mps 746 mmHg 83%
13:00 +10°C° 0 mm 3 mps 747 mmHg 79%
14:00 +10°C° 0 mm 3 mps 747 mmHg 75%
15:00 +10°C° 0 mm 3 mps 747 mmHg 79%
16:00 +9°C° 0 mm 3 mps 748 mmHg 82%
17:00 +8°C° 0 mm 3 mps 748 mmHg 86%
18:00 +8°C° 0 mm 2 mps 748 mmHg 86%
19:00 +8°C° 0 mm 2 mps 749 mmHg 87%
20:00 +7°C° 0 mm 2 mps 749 mmHg 88%
21:00 +7°C° 0 mm 2 mps 749 mmHg 89%
22:00 +7°C° 0 mm 2 mps 750 mmHg 90%
23:00 +6°C° 0 mm 2 mps 750 mmHg 91%

Day after tomorrow, 26 October, Monday

Time Temperature Precipitation Wind Pressure Humidity
00:00 +7°C° 0 mm 1 mps 750 mmHg 90%
01:00 +8°C° 0 mm 1 mps 750 mmHg 90%
02:00 +8°C° 0 mm 1 mps 751 mmHg 89%
03:00 +8°C° 0 mm 1 mps 751 mmHg 89%
04:00 +8°C° 0 mm 1 mps 751 mmHg 89%
05:00 +8°C° 0 mm 1 mps 752 mmHg 89%
06:00 +9°C° 0 mm 1 mps 752 mmHg 88%
07:00 +9°C° 0 mm 1 mps 752 mmHg 87%
08:00 +8°C° 0 mm 0 mps 752 mmHg 86%
09:00 +10°C° 0 mm 1 mps 752 mmHg 80%
10:00 +11°C° 0 mm 1 mps 753 mmHg 74%
11:00 +12°C° 0 mm 1 mps 753 mmHg 68%
12:00 +12°C° 0 mm 1 mps 753 mmHg 66%
13:00 +12°C° 0 mm 0 mps 753 mmHg 65%
14:00 +12°C° 0 mm 0 mps 753 mmHg 63%
15:00 +11°C° 0 mm 0 mps 753 mmHg 68%
16:00 +10°C° 0 mm 1 mps 753 mmHg 73%
17:00 +9°C° 0 mm 1 mps 753 mmHg 79%
18:00 +9°C° 0 mm 1 mps 753 mmHg 81%
19:00 +9°C° 0 mm 1 mps 753 mmHg 83%
20:00 +8°C° 0 mm 1 mps 754 mmHg 85%
21:00 +7°C° 0 mm 2 mps 754 mmHg 86%
22:00 +7°C° 0 mm 2 mps 754 mmHg 87%
23:00 +7°C° 0 mm 2 mps 754 mmHg 89%

, 27 October, Tuesday

Time Temperature Precipitation Wind Pressure Humidity
00:00 +7°C° 0 mm 2 mps 754 mmHg 89%
01:00 +6°C° 0 mm 2 mps 754 mmHg 89%
02:00 +6°C° 0 mm 2 mps 754 mmHg 90%
03:00 +6°C° 0 mm 2 mps 754 mmHg 90%
04:00 +6°C° 0 mm 2 mps 754 mmHg 91%
05:00 +5°C° 0 mm 2 mps 755 mmHg 92%
06:00 +6°C° 0 mm 2 mps 755 mmHg 91%
07:00 +5°C° 0 mm 3 mps 755 mmHg 89%
08:00 +7°C° 0 mm 3 mps 755 mmHg 88%
09:00 +8°C° 0 mm 3 mps 755 mmHg 83%
10:00 +9°C° 0 mm 3 mps 755 mmHg 78%
11:00 +10°C° 0 mm 3 mps 755 mmHg 73%
12:00 +11°C° 0 mm 3 mps 755 mmHg 72%
13:00 +11°C° 0 mm 4 mps 755 mmHg 71%
14:00 +11°C° 0 mm 4 mps 755 mmHg 70%
15:00 +10°C° 0 mm 3 mps 755 mmHg 76%
16:00 +9°C° 0 mm 3 mps 755 mmHg 81%
17:00 +8°C° 0 mm 3 mps 755 mmHg 87%
18:00 +7°C° 0 mm 3 mps 755 mmHg 87%
19:00 +7°C° 0 mm 3 mps 755 mmHg 87%
20:00 +7°C° 0 mm 3 mps 755 mmHg 88%
21:00 +7°C° 0 mm 3 mps 755 mmHg 88%
22:00 +5°C° 0 mm 3 mps 755 mmHg 88%
23:00 +5°C° 0 mm 3 mps 755 mmHg 88%

27 October, Tuesday

Time Temperature Precipitation Wind Pressure Humidity
00:00 +7°C° 0 mm 2 mps 754 mmHg 89%
01:00 +6°C° 0 mm 2 mps 754 mmHg 89%
02:00 +6°C° 0 mm 2 mps 754 mmHg 90%
03:00 +6°C° 0 mm 2 mps 754 mmHg 90%
04:00 +6°C° 0 mm 2 mps 754 mmHg 91%
05:00 +5°C° 0 mm 2 mps 755 mmHg 92%
06:00 +6°C° 0 mm 2 mps 755 mmHg 91%
07:00 +5°C° 0 mm 3 mps 755 mmHg 89%
08:00 +7°C° 0 mm 3 mps 755 mmHg 88%
09:00 +8°C° 0 mm 3 mps 755 mmHg 83%
10:00 +9°C° 0 mm 3 mps 755 mmHg 78%
11:00 +10°C° 0 mm 3 mps 755 mmHg 73%
12:00 +11°C° 0 mm 3 mps 755 mmHg 72%
13:00 +11°C° 0 mm 4 mps 755 mmHg 71%
14:00 +11°C° 0 mm 4 mps 755 mmHg 70%
15:00 +10°C° 0 mm 3 mps 755 mmHg 76%
16:00 +9°C° 0 mm 3 mps 755 mmHg 81%
17:00 +8°C° 0 mm 3 mps 755 mmHg 87%
18:00 +7°C° 0 mm 3 mps 755 mmHg 87%
19:00 +7°C° 0 mm 3 mps 755 mmHg 87%
20:00 +7°C° 0 mm 3 mps 755 mmHg 88%
21:00 +7°C° 0 mm 3 mps 755 mmHg 88%
22:00 +5°C° 0 mm 3 mps 755 mmHg 88%
23:00 +5°C° 0 mm 3 mps 755 mmHg 88%

28 October, Wednesday

Time Temperature Precipitation Wind Pressure Humidity
00:00 +5°C° 0 mm 3 mps 755 mmHg 88%
01:00 +5°C° 0 mm 3 mps 755 mmHg 89%
02:00 +4°C° 0 mm 3 mps 755 mmHg 89%
03:00 +4°C° 0 mm 3 mps 755 mmHg 88%
04:00 +4°C° 0 mm 3 mps 755 mmHg 88%
05:00 +4°C° 0 mm 3 mps 755 mmHg 87%
06:00 +4°C° 0 mm 4 mps 755 mmHg 85%
07:00 +4°C° 0 mm 4 mps 755 mmHg 83%
08:00 +5°C° 0 mm 4 mps 755 mmHg 80%
09:00 +6°C° 0 mm 4 mps 755 mmHg 75%
10:00 +7°C° 0 mm 4 mps 755 mmHg 71%
11:00 +9°C° 0 mm 5 mps 755 mmHg 66%
12:00 +10°C° 0 mm 4 mps 755 mmHg 65%
13:00 +10°C° 0 mm 4 mps 755 mmHg 65%
14:00 +11°C° 0 mm 4 mps 755 mmHg 64%
15:00 +10°C° 0 mm 4 mps 755 mmHg 68%
16:00 +7°C° 0 mm 4 mps 755 mmHg 72%
17:00 +7°C° 0 mm 3 mps 755 mmHg 76%
18:00 +6°C° 0 mm 4 mps 755 mmHg 76%
19:00 +5°C° 0 mm 4 mps 755 mmHg 75%
20:00 +5°C° 0 mm 4 mps 755 mmHg 75%
21:00 +5°C° 0 mm 4 mps 755 mmHg 74%
22:00 +4°C° 0 mm 3 mps 755 mmHg 74%
23:00 +4°C° 0 mm 3 mps 755 mmHg 73%

29 October, Thursday

Time Temperature Precipitation Wind Pressure Humidity
00:00 +3°C° 0 mm 3 mps 755 mmHg 71%
01:00 +3°C° 0 mm 3 mps 755 mmHg 69%
02:00 +2°C° 0 mm 3 mps 755 mmHg 67%
03:00 +2°C° 0 mm 3 mps 755 mmHg 66%
04:00 +2°C° 0 mm 3 mps 755 mmHg 64%
05:00 +1°C° 0 mm 3 mps 754 mmHg 63%
06:00 +1°C° 0 mm 3 mps 754 mmHg 62%
07:00 +2°C° 0 mm 3 mps 754 mmHg 61%
08:00 +2°C° 0 mm 3 mps 754 mmHg 60%
09:00 +3°C° 0 mm 3 mps 754 mmHg 58%
10:00 +4°C° 0 mm 4 mps 754 mmHg 57%
11:00 +5°C° 0 mm 4 mps 754 mmHg 55%
12:00 +6°C° 0 mm 4 mps 754 mmHg 56%
13:00 +6°C° 0 mm 4 mps 753 mmHg 56%
14:00 +7°C° 0 mm 4 mps 753 mmHg 57%
15:00 +7°C° 0 mm 3 mps 753 mmHg 62%
16:00 +5°C° 0 mm 3 mps 753 mmHg 66%
17:00 +4°C° 0 mm 3 mps 753 mmHg 70%
18:00 +4°C° 0 mm 3 mps 753 mmHg 71%
19:00 +4°C° 0 mm 3 mps 753 mmHg 71%
20:00 +4°C° 0 mm 3 mps 752 mmHg 71%
21:00 +4°C° 0 mm 2 mps 752 mmHg 72%
22:00 +4°C° 0 mm 2 mps 752 mmHg 73%
23:00 +4°C° 0 mm 2 mps 752 mmHg 74%
Show more